Hourly Weather Bolshoy Kudin

Today, 3 August, Tuesday

Time Temperature Precipitation Wind Pressure Humidity
00:00 +14°C° 0 mm 3 mps 739 mmHg 91%
01:00 +14°C° 0 mm 3 mps 740 mmHg 95%
02:00 +13°C° 0 mm 3 mps 740 mmHg 98%
03:00 +13°C° 0 mm 3 mps 740 mmHg 98%
04:00 +13°C° 0 mm 3 mps 740 mmHg 98%
05:00 +12°C° 0 mm 3 mps 740 mmHg 97%
06:00 +14°C° 0 mm 3 mps 741 mmHg 88%
07:00 +17°C° 0 mm 3 mps 741 mmHg 78%
08:00 +18°C° 0 mm 4 mps 741 mmHg 69%
09:00 +19°C° 0.2 mm 4 mps 742 mmHg 64%
10:00 +20°C° 0.2 mm 5 mps 742 mmHg 58%
11:00 +21°C° 0.2 mm 5 mps 742 mmHg 52%
12:00 +21°C° 0 mm 5 mps 742 mmHg 51%
13:00 +21°C° 0 mm 5 mps 742 mmHg 50%
14:00 +21°C° 0 mm 5 mps 742 mmHg 49%
15:00 +21°C° 0 mm 4 mps 742 mmHg 52%
16:00 +21°C° 0 mm 4 mps 742 mmHg 54%
17:00 +20°C° 0 mm 4 mps 742 mmHg 56%
18:00 +19°C° 0 mm 3 mps 742 mmHg 61%
19:00 +18°C° 0 mm 3 mps 743 mmHg 66%
20:00 +17°C° 0 mm 2 mps 743 mmHg 70%
21:00 +17°C° 0 mm 2 mps 743 mmHg 72%
22:00 +16°C° 0 mm 2 mps 743 mmHg 74%
23:00 +16°C° 0 mm 2 mps 744 mmHg 76%

Tomorrow, 4 August, Wednesday

Time Temperature Precipitation Wind Pressure Humidity
00:00 +15°C° 0 mm 2 mps 744 mmHg 80%
01:00 +14°C° 0 mm 2 mps 744 mmHg 83%
02:00 +14°C° 0 mm 2 mps 744 mmHg 87%
03:00 +13°C° 0 mm 2 mps 745 mmHg 88%
04:00 +13°C° 0 mm 2 mps 745 mmHg 90%
05:00 +13°C° 0 mm 2 mps 745 mmHg 91%
06:00 +15°C° 0 mm 2 mps 745 mmHg 83%
07:00 +17°C° 0 mm 2 mps 745 mmHg 75%
08:00 +19°C° 0 mm 2 mps 746 mmHg 67%
09:00 +19°C° 0.2 mm 2 mps 746 mmHg 63%
10:00 +20°C° 0.2 mm 3 mps 746 mmHg 60%
11:00 +21°C° 0.2 mm 3 mps 746 mmHg 57%
12:00 +22°C° 0.1 mm 3 mps 746 mmHg 53%
13:00 +24°C° 0.1 mm 3 mps 746 mmHg 49%
14:00 +24°C° 0.1 mm 3 mps 745 mmHg 45%
15:00 +24°C° 0 mm 3 mps 745 mmHg 46%
16:00 +24°C° 0 mm 2 mps 745 mmHg 46%
17:00 +24°C° 0 mm 2 mps 745 mmHg 47%
18:00 +21°C° 0 mm 2 mps 745 mmHg 52%
19:00 +21°C° 0 mm 1 mps 745 mmHg 57%
20:00 +19°C° 0 mm 1 mps 745 mmHg 62%
21:00 +19°C° 0.1 mm 1 mps 745 mmHg 65%
22:00 +17°C° 0.1 mm 2 mps 745 mmHg 69%
23:00 +17°C° 0.1 mm 2 mps 745 mmHg 72%

Day after tomorrow, 5 August, Thursday

Time Temperature Precipitation Wind Pressure Humidity
00:00 +16°C° 1.2 mm 2 mps 745 mmHg 80%
01:00 +15°C° 1.2 mm 2 mps 744 mmHg 88%
02:00 +14°C° 1.2 mm 2 mps 744 mmHg 96%
03:00 +15°C° 1.4 mm 2 mps 744 mmHg 96%
04:00 +14°C° 1.4 mm 3 mps 744 mmHg 96%
05:00 +14°C° 1.4 mm 4 mps 743 mmHg 96%
06:00 +14°C° 0.2 mm 3 mps 743 mmHg 96%
07:00 +16°C° 0.2 mm 3 mps 743 mmHg 95%
08:00 +16°C° 0.2 mm 2 mps 743 mmHg 95%
09:00 +17°C° 0.1 mm 2 mps 743 mmHg 89%
10:00 +19°C° 0.1 mm 2 mps 743 mmHg 84%
11:00 +21°C° 0.1 mm 1 mps 743 mmHg 78%
12:00 +22°C° 0.2 mm 1 mps 742 mmHg 74%
13:00 +22°C° 0.2 mm 1 mps 742 mmHg 71%
14:00 +23°C° 0.2 mm 1 mps 742 mmHg 67%
15:00 +23°C° 0.3 mm 1 mps 742 mmHg 69%
16:00 +23°C° 0.3 mm 1 mps 742 mmHg 71%
17:00 +22°C° 0.3 mm 1 mps 741 mmHg 74%
18:00 +20°C° 0.1 mm 2 mps 741 mmHg 80%
19:00 +19°C° 0.1 mm 3 mps 741 mmHg 87%
20:00 +17°C° 0.1 mm 3 mps 741 mmHg 94%
21:00 +17°C° 0.1 mm 3 mps 741 mmHg 95%
22:00 +16°C° 0.1 mm 3 mps 741 mmHg 96%
23:00 +16°C° 0.1 mm 3 mps 741 mmHg 97%

6 August, Friday

Time Temperature Precipitation Wind Pressure Humidity
00:00 +16°C° 0 mm 3 mps 740 mmHg 97%
01:00 +15°C° 0 mm 4 mps 739 mmHg 97%
02:00 +15°C° 0 mm 4 mps 739 mmHg 97%
03:00 +15°C° 2.4 mm 4 mps 738 mmHg 98%
04:00 +15°C° 2.4 mm 4 mps 738 mmHg 98%
05:00 +17°C° 2.4 mm 4 mps 737 mmHg 98%
06:00 +17°C° 1.1 mm 4 mps 737 mmHg 97%
07:00 +18°C° 1.1 mm 4 mps 737 mmHg 96%
08:00 +18°C° 1.1 mm 4 mps 737 mmHg 94%
09:00 +20°C° 0.1 mm 5 mps 736 mmHg 91%
10:00 +21°C° 0.1 mm 5 mps 736 mmHg 87%
11:00 +22°C° 0.1 mm 5 mps 736 mmHg 83%
12:00 +23°C° 0.4 mm 5 mps 736 mmHg 81%
13:00 +23°C° 0.4 mm 6 mps 736 mmHg 79%
14:00 +24°C° 0.4 mm 6 mps 736 mmHg 77%
15:00 +25°C° 0.6 mm 5 mps 736 mmHg 77%
16:00 +25°C° 0.6 mm 5 mps 735 mmHg 77%
17:00 +25°C° 0.6 mm 5 mps 735 mmHg 77%
18:00 +22°C° 0.2 mm 4 mps 736 mmHg 80%
19:00 +21°C° 0.2 mm 3 mps 736 mmHg 83%
20:00 +19°C° 0.2 mm 2 mps 736 mmHg 86%
21:00 +19°C° 0 mm 2 mps 737 mmHg 87%
22:00 +19°C° 0 mm 2 mps 737 mmHg 88%
23:00 +18°C° 0 mm 2 mps 737 mmHg 89%

7 August, Saturday

Time Temperature Precipitation Wind Pressure Humidity
00:00 +18°C° 0 mm 2 mps 737 mmHg 91%
01:00 +17°C° 0 mm 2 mps 738 mmHg 92%
02:00 +17°C° 0 mm 2 mps 738 mmHg 93%
03:00 +18°C° 0 mm 1 mps 738 mmHg 94%
04:00 +16°C° 0 mm 1 mps 738 mmHg 94%
05:00 +16°C° 0 mm 1 mps 738 mmHg 95%
06:00 +18°C° 0.9 mm 1 mps 738 mmHg 95%
07:00 +18°C° 0.9 mm 1 mps 738 mmHg 96%
08:00 +16°C° 0.9 mm 0 mps 738 mmHg 97%
09:00 +18°C° 0.7 mm 1 mps 739 mmHg 95%
10:00 +19°C° 0.7 mm 1 mps 739 mmHg 93%
11:00 +19°C° 0.7 mm 1 mps 739 mmHg 91%
12:00 +20°C° 0 mm 1 mps 739 mmHg 84%
13:00 +21°C° 0 mm 2 mps 739 mmHg 77%
14:00 +24°C° 0 mm 2 mps 739 mmHg 70%
15:00 +23°C° 0 mm 2 mps 739 mmHg 69%
16:00 +22°C° 0 mm 3 mps 740 mmHg 69%
17:00 +22°C° 0 mm 3 mps 740 mmHg 68%
18:00 +21°C° 0 mm 3 mps 740 mmHg 73%
19:00 +19°C° 0 mm 2 mps 740 mmHg 79%
20:00 +17°C° 0 mm 2 mps 741 mmHg 84%
21:00 +17°C° 0 mm 2 mps 741 mmHg 88%
22:00 +16°C° 0 mm 2 mps 741 mmHg 91%
23:00 +15°C° 0 mm 2 mps 742 mmHg 95%

8 August, Sunday

Time Temperature Precipitation Wind Pressure Humidity
00:00 +15°C° 0 mm 2 mps 742 mmHg 95%
01:00 +15°C° 0 mm 2 mps 742 mmHg 95%
02:00 +14°C° 0 mm 2 mps 742 mmHg 96%
03:00 +14°C° 0 mm 2 mps 742 mmHg 96%
04:00 +14°C° 0 mm 2 mps 743 mmHg 96%
05:00 +14°C° 0 mm 2 mps 743 mmHg 97%
06:00 +16°C° 0 mm 2 mps 743 mmHg 91%
07:00 +17°C° 0 mm 3 mps 743 mmHg 85%
08:00 +19°C° 0 mm 3 mps 743 mmHg 80%
09:00 +21°C° 0 mm 3 mps 744 mmHg 71%
10:00 +22°C° 0 mm 3 mps 744 mmHg 63%
11:00 +24°C° 0 mm 3 mps 744 mmHg 55%
12:00 +25°C° 0 mm 3 mps 745 mmHg 51%
13:00 +26°C° 0 mm 3 mps 745 mmHg 47%
14:00 +26°C° 0 mm 3 mps 745 mmHg 43%
15:00 +26°C° 0 mm 3 mps 745 mmHg 46%
16:00 +26°C° 0 mm 2 mps 745 mmHg 49%
17:00 +26°C° 0 mm 2 mps 745 mmHg 52%
18:00 +24°C° 0 mm 2 mps 746 mmHg 58%
19:00 +22°C° 0 mm 1 mps 746 mmHg 65%
20:00 +19°C° 0 mm 0 mps 746 mmHg 71%
21:00 +18°C° 0 mm 0 mps 746 mmHg 73%
22:00 +17°C° 0 mm 0 mps 746 mmHg 75%
23:00 +17°C° 0 mm 0 mps 747 mmHg 77%
Show more

We Need Your Consent

Meteoprog and our Service Providers may store and access personal data such as cookies, device identifiers or other similar technologies on your device and process such data to personalise content and ads, as well as provide social media features and to analyse the traffic.

  • Store and/or access information on your device

    Cookies, device identifiers or other information can be stored or accessed on your device for the purposes indicated above.

  • Personalised ads and content, ad and content measurement, audience insights, and products development

    Ads and content can be personalised based on a profile. More data can be added to better personalise ads and content. Ad and content performance can be measured. Insights about the audience who saw the ads and content can be derived. Such data can be used to develop or improve user’s experience, systems and software.

By clicking ‘I Agree’ you will allow the use of indicated cookies, device identifiers, web beacons or other similar technologies. Your settings can be changed in the browser on your device.

For certain purposes, legitimate interests may be relied on, rather than consent. You can read more about this in our Privacy and Cookie Policy.